FW1208 Weather Reports


time (UTC)temp
F
wind
direction
speed
knots
gust
knots
rain 1hr
in
rain 24hr
in
rain mn
in
humidity
%
barometer
mb
20260510104508 53 226 1.7 3.5 0.00 0.00 0.00 89 1013.4
20260510104007 53 226 1.7 3.5 0.00 0.00 0.00 89 1013.3
20260510103507 53 229 1.7 3.5 0.00 0.00 0.00 88 1013.3
20260510103006 53 231 1.7 3.5 0.00 0.00 0.00 88 1013.3
20260510102505 53 231 1.7 3.5 0.00 0.00 0.00 88 1013.2
20260510102004 53 231 1.7 4.3 0.00 0.00 0.00 87 1013.1
20260510101503 54 233 0.9 4.3 0.00 0.00 0.00 87 1013.0
20260510101003 54 231 1.7 4.3 0.00 0.00 0.00 88 1012.9
20260510100502 54 231 1.7 3.5 0.00 0.00 0.00 88 1012.9
20260510100002 54 247 0.9 2.6 0.00 0.00 0.00 88 1012.9
20260510095503 54 248 0.9 3.5 0.00 0.00 0.00 88 1012.8
20260510095004 54 248 0.9 3.5 0.00 0.00 0.00 89 1012.8
20260510094505 53 248 1.7 2.6 0.00 0.00 0.00 89 1012.8
20260510094103 53 248 1.7 2.6 0.00 0.00 0.00 88 1012.8
20260510093559 54 248 1.7 3.5 0.00 0.00 0.00 87 1012.6
20260510093059 55 248 0.0 3.5 0.00 0.00 0.00 86 1012.6
20260510092601 55 248 0.9 6.1 0.00 0.00 0.00 87 1012.6
20260510092100 55 248 0.0 6.1 0.00 0.00 0.00 87 1012.5
20260510091600 54 261 1.7 5.2 0.00 0.00 0.00 88 1012.5
20260510091057 54 244 0.9 3.5 0.00 0.00 0.00 89 1012.5
20260510090557 54 241 1.7 3.5 0.00 0.00 0.00 89 1012.5
20260510090056 54 243 1.7 3.5 0.00 0.00 0.00 89 1012.5
20260510085558 54 242 1.7 3.5 0.00 0.00 0.00 89 1012.4
20260510085057 54 242 0.9 3.5 0.00 0.00 0.00 89 1012.4
20260510084554 55 245 1.7 2.6 0.00 0.00 0.00 89 1012.4
20260510084053 55 245 0.0 3.5 0.00 0.00 0.00 88 1012.4
20260510083553 55 245 0.9 3.5 0.00 0.00 0.00 88 1012.4
20260510083051 55 245 0.9 3.5 0.00 0.00 0.00 88 1012.3
20260510082551 56 245 0.9 3.5 0.00 0.00 0.00 88 1012.3
20260510082050 56 240 1.7 4.3 0.00 0.00 0.00 88 1012.2
20260510081550 56 223 1.7 4.3 0.00 0.00 0.00 88 1012.1
20260510081050 56 242 1.7 5.2 0.00 0.00 0.00 88 1012.2
20260510080549 56 232 0.9 2.6 0.00 0.00 0.00 88 1012.2
20260510080058 56 232 0.9 4.3 0.00 0.00 0.00 88 1012.2
20260510075551 57 229 2.6 4.3 0.00 0.00 0.00 88 1012.1
20260510075048 57 223 1.7 4.3 0.00 0.00 0.00 89 1012.2
20260510074552 56 242 1.7 4.3 0.00 0.00 0.00 89 1012.1
20260510074048 56 225 0.9 4.3 0.00 0.00 0.00 90 1012.0
20260510073547 56 227 1.7 5.2 0.00 0.00 0.00 90 1012.0
20260510073106 56 215 1.7 5.2 0.00 0.00 0.00 90 1011.9
20260510072547 55 210 3.5 5.2 0.00 0.00 0.00 90 1012.0
20260510072049 55 206 3.5 6.1 0.00 0.00 0.00 90 1012.0
20260510071546 55 207 4.3 6.1 0.00 0.00 0.00 90 1012.0
20260510071044 55 220 1.7 3.5 0.00 0.00 0.00 90 1011.9
20260510070544 55 220 0.9 1.7 0.00 0.00 0.00 89 1012.0
20260510070045 56 220 0.9 2.6 0.00 0.00 0.00 89 1011.9
20260510065544 55 220 0.9 3.5 0.00 0.00 0.00 89 1011.8
20260510065043 55 220 2.6 3.5 0.00 0.00 0.00 88 1011.9
20260510064559 56 221 0.9 3.5 0.00 0.00 0.00 88 1011.7
20260510064040 56 221 0.9 4.3 0.00 0.00 0.00 88 1011.7
20260510063540 57 220 1.7 4.3 0.00 0.00 0.00 88 1011.7
20260510063040 56 226 0.9 4.3 0.00 0.00 0.00 88 1011.7
20260510062538 56 211 1.7 3.5 0.00 0.00 0.00 87 1011.7
20260510062038 57 211 2.6 3.5 0.00 0.00 0.00 87 1011.8
20260510061538 57 211 1.7 3.5 0.00 0.00 0.00 87 1011.7
20260510061042 57 211 1.7 5.2 0.00 0.00 0.00 87 1011.8
20260510060542 56 211 1.7 7.0 0.00 0.00 0.00 86 1011.7
20260510060038 57 184 4.3 7.0 0.00 0.00 0.00 85 1011.8
20260510055537 58 192 4.3 6.1 0.00 0.00 0.00 86 1011.8
20260510055039 58 189 0.9 3.5 0.00 0.00 0.00 85 1011.7
20260510054542 58 218 0.0 3.5 0.00 0.00 0.00 86 1011.5
20260510054035 57 196 0.0 2.6 0.00 0.00 0.00 86 1011.5
20260510053536 57 196 0.9 3.5 0.00 0.00 0.00 86 1011.6
20260510053042 57 196 1.7 4.3 0.00 0.00 0.00 85 1011.7
20260510052535 58 196 2.6 4.3 0.00 0.00 0.00 84 1011.7
20260510052031 58 227 0.9 3.5 0.00 0.00 0.00 83 1011.7
20260510051545 59 240 2.6 3.5 0.00 0.00 0.00 82 1011.7
20260510051031 60 241 0.9 3.5 0.00 0.00 0.00 81 1011.6
20260510050528 60 241 0.9 6.1 0.00 0.00 0.00 80 1011.6
20260510050035 60 241 0.9 6.1 0.00 0.00 0.00 80 1011.6
20260510045528 60 244 0.9 6.1 0.00 0.00 0.00 80 1011.7
20260510045029 60 255 2.6 6.1 0.00 0.00 0.00 81 1011.6
20260510044526 60 201 0.0 4.3 0.00 0.00 0.00 80 1011.6
20260510044026 60 201 1.7 4.3 0.00 0.00 0.00 80 1011.8
20260510043526 60 201 2.6 4.3 0.00 0.00 0.00 80 1011.7
20260510043024 60 198 2.6 4.3 0.00 0.00 0.00 80 1011.7
20260510042525 60 203 2.6 4.3 0.00 0.00 0.00 79 1011.7
20260510042021 61 203 1.7 4.3 0.00 0.00 0.00 78 1011.5
20260510041520 61 202 1.7 4.3 0.00 0.00 0.00 78 1011.6
20260510041020 61 202 1.7 4.3 0.00 0.00 0.00 78 1011.5
20260510040519 61 202 2.6 4.3 0.00 0.00 0.00 78 1011.4
20260510040018 61 197 2.6 6.1 0.00 0.00 0.00 78 1011.5
20260510035517 61 197 4.3 6.1 0.00 0.00 0.00 77 1011.3
20260510035022 61 194 4.3 7.0 0.00 0.00 0.00 77 1011.3
20260510034518 61 194 4.3 7.0 0.00 0.00 0.00 76 1011.2
20260510034019 62 189 5.2 7.8 0.00 0.00 0.00 76 1011.3
20260510033517 62 190 4.3 7.8 0.00 0.00 0.00 76 1011.3
20260510033019 62 194 5.2 7.0 0.00 0.00 0.00 76 1011.2
20260510032517 62 200 4.3 8.7 0.00 0.00 0.00 75 1011.2
20260510032017 62 195 6.1 8.7 0.00 0.00 0.00 75 1011.1
20260510031523 62 196 5.2 8.7 0.00 0.00 0.00 74 1011.1
20260510031017 62 192 6.1 8.7 0.00 0.00 0.00 74 1011.1
20260510030518 62 190 6.1 8.7 0.00 0.00 0.00 74 1011.1
20260510030016 62 193 5.2 8.7 0.00 0.00 0.00 74 1011.1
20260510025519 62 200 5.2 8.7 0.00 0.00 0.00 73 1011.0
20260510025022 62 203 5.2 7.8 0.00 0.00 0.00 73 1011.0
20260510024516 62 201 4.3 7.0 0.00 0.00 0.00 72 1011.0
20260510024018 62 200 4.3 6.1 0.00 0.00 0.00 72 1011.0
20260510023515 62 189 4.3 5.2 0.00 0.00 0.00 72 1010.9
20260510023014 63 184 3.5 6.1 0.00 0.00 0.00 71 1010.8
20260510022514 63 187 4.3 7.0 0.00 0.00 0.00 70 1010.6
20260510022014 63 187 4.3 7.0 0.00 0.00 0.00 70 1010.6
20260510021523 64 196 4.3 6.1 0.00 0.00 0.00 69 1010.6
20260510021013 64 209 3.5 7.0 0.00 0.00 0.00 69 1010.5
20260510020514 64 205 3.5 7.0 0.00 0.00 0.00 68 1010.4
20260510020017 64 196 4.3 6.1 0.00 0.00 0.00 67 1010.4
20260510015513 65 191 3.5 6.1 0.00 0.00 0.00 67 1010.3
20260510015013 65 175 2.6 6.1 0.00 0.00 0.00 67 1010.3
20260510014513 65 183 4.3 6.1 0.00 0.00 0.00 67 1010.2
20260510014013 65 189 3.5 6.1 0.00 0.00 0.00 66 1010.2
20260510013513 65 202 4.3 8.7 0.00 0.00 0.00 66 1010.2
20260510013012 65 192 5.2 8.7 0.00 0.00 0.00 66 1010.1
20260510012512 65 184 4.3 7.0 0.00 0.00 0.00 65 1010.0
20260510012011 65 185 4.3 7.0 0.00 0.00 0.00 65 1010.0
20260510011511 65 187 5.2 7.0 0.00 0.00 0.00 65 1009.9
20260510011011 66 181 3.5 6.1 0.00 0.00 0.00 64 1009.7
20260510010511 66 176 4.3 6.1 0.00 0.00 0.00 64 1009.8
20260510010011 66 180 2.6 4.3 0.00 0.00 0.00 64 1009.7
20260510005511 66 180 2.6 4.3 0.00 0.00 0.00 64 1009.7
20260510005015 66 180 2.6 4.3 0.00 0.00 0.00 63 1009.7
20260510004510 66 180 1.7 5.2 0.00 0.00 0.00 62 1009.7
20260510004010 67 180 1.7 4.3 0.00 0.00 0.00 62 1009.7
20260510003510 67 180 0.9 4.3 0.00 0.00 0.00 62 1009.5
20260510003012 67 180 1.7 4.3 0.00 0.00 0.00 61 1009.6
20260510002509 68 180 3.5 4.3 0.00 0.00 0.00 61 1009.4
20260510002009 68 178 2.6 4.3 0.00 0.00 0.00 60 1009.4
20260510001509 68 184 2.6 4.3 0.00 0.00 0.00 59 1009.3
20260510001009 69 186 1.7 4.3 0.00 0.00 0.00 58 1009.2
20260510000509 69 189 1.7 5.2 0.00 0.00 0.00 58 1009.2
20260510000009 69 190 3.5 5.2 0.00 0.00 0.00 58 1009.2
20260509235509 69 192 3.5 6.1 0.00 0.00 0.00 57 1009.1
20260509235010 70 185 3.5 6.1 0.00 0.00 0.00 57 1009.1
20260509234508 70 190 3.5 7.0 0.00 0.00 0.00 56 1009.0
20260509234009 70 186 3.5 7.0 0.00 0.00 0.00 56 1009.0
20260509233509 70 190 4.3 8.7 0.00 0.00 0.00 56 1009.0
20260509233007 71 202 3.5 8.7 0.00 0.00 0.00 55 1008.9
20260509232507 71 177 5.2 8.7 0.00 0.00 0.00 55 1009.0
20260509232007 71 187 5.2 8.7 0.00 0.00 0.00 55 1008.9
20260509231507 71 196 7.0 9.6 0.00 0.00 0.00 54 1009.0
20260509231006 72 191 6.1 9.6 0.00 0.00 0.00 53 1008.9
20260509230506 72 161 4.3 8.7 0.00 0.00 0.00 53 1009.0
20260509230006 72 183 5.2 8.7 0.00 0.00 0.00 53 1008.9
20260509225506 72 199 3.5 11.3 0.00 0.00 0.00 53 1009.0
20260509225006 72 186 7.8 11.3 0.00 0.00 0.00 53 1009.0
20260509224506 72 209 6.1 10.4 0.00 0.00 0.00 52 1009.0
20260509224007 72 187 6.1 11.3 0.00 0.00 0.00 52 1008.9
20260509223507 72 211 7.0 11.3 0.00 0.00 0.00 52 1009.0
20260509223005 72 189 7.0 12.2 0.00 0.00 0.00 52 1009.0
20260509222505 73 188 7.0 13.0 0.00 0.00 0.00 51 1009.0
20260509222007 73 197 7.8 12.2 0.00 0.00 0.00 51 1009.0
20260509221505 73 207 6.1 15.6 0.00 0.00 0.00 51 1009.0
20260509221005 73 190 7.0 15.6 0.00 0.00 0.00 51 1009.0
20260509220505 73 196 7.0 13.9 0.00 0.00 0.00 51 1009.1
20260509220004 72 163 9.6 13.9 0.00 0.00 0.00 51 1008.9
20260509215506 72 192 7.0 12.2 0.00 0.00 0.00 50 1008.9
20260509215004 73 186 7.8 12.2 0.00 0.00 0.00 50 1009.0
20260509214504 74 199 5.2 9.6 0.00 0.00 0.00 50 1009.0
20260509214003 74 200 4.3 10.4 0.00 0.00 0.00 50 1008.9
20260509213502 74 236 3.5 13.0 0.00 0.00 0.00 49 1008.9
20260509213002 74 247 6.1 13.0 0.00 0.00 0.00 50 1008.9
20260509212503 73 206 5.2 13.0 0.00 0.00 0.00 52 1009.0
20260509212001 73 196 5.2 11.3 0.00 0.00 0.00 51 1009.0
20260509211501 73 223 5.2 11.3 0.00 0.00 0.00 52 1008.9
20260509211102 73 194 6.1 11.3 0.00 0.00 0.00 53 1008.9
20260509210601 73 212 6.1 11.3 0.00 0.00 0.00 52 1008.8
20260509210101 73 220 6.1 8.7 0.00 0.00 0.00 51 1008.8
20260509205601 74 200 3.5 8.7 0.00 0.00 0.00 51 1008.9
20260509205059 73 221 3.5 13.9 0.00 0.00 0.00 52 1008.7
20260509204603 73 207 6.1 13.9 0.00 0.00 0.00 52 1008.8
20260509204059 73 190 7.0 12.2 0.00 0.00 0.00 52 1008.7
20260509203601 73 234 6.1 11.3 0.00 0.00 0.00 51 1008.6
20260509203058 73 237 4.3 9.6 0.00 0.00 0.00 53 1008.6
20260509202558 71 187 3.5 9.6 0.00 0.00 0.00 55 1008.6
20260509202101 72 238 7.0 12.2 0.00 0.00 0.00 54 1008.7
20260509201557 72 240 5.2 12.2 0.00 0.00 0.00 54 1008.7
20260509201102 72 182 7.0 14.8 0.00 0.00 0.00 54 1008.7
20260509200556 73 242 6.1 14.8 0.00 0.00 0.00 53 1008.7
20260509200109 73 211 8.7 14.8 0.00 0.00 0.00 51 1008.9
20260509195556 73 317 2.6 8.7 0.00 0.00 0.00 55 1009.0
20260509195055 72 196 2.6 7.8 0.00 0.00 0.00 54 1008.9
20260509194556 72 175 3.5 9.6 0.00 0.00 0.00 54 1009.0
20260509194053 72 236 6.1 9.6 0.00 0.00 0.00 54 1009.1
20260509193551 73 200 5.2 9.6 0.00 0.00 0.00 55 1009.2
20260509193050 72 227 1.7 9.6 0.00 0.00 0.00 54 1009.3
20260509192549 72 249 5.2 9.6 0.00 0.00 0.00 56 1009.4
20260509192053 72 223 3.5 7.0 0.00 0.00 0.00 56 1009.6
20260509191547 71 237 3.5 6.1 0.00 0.00 0.00 57 1009.5
20260509191046 71 258 2.6 10.4 0.00 0.00 0.00 59 1009.7
20260509190545 70 269 4.3 10.4 0.00 0.00 0.00 59 1009.8
20260509190045 70 219 2.6 7.8 0.00 0.00 0.00 60 1009.9
20260509185544 70 259 2.6 7.8 0.00 0.00 0.00 60 1010.0
20260509185043 70 214 2.6 6.1 0.00 0.00 0.00 61 1010.0
20260509184547 70 246 1.7 8.7 0.00 0.00 0.00 60 1010.2
20260509184043 70 233 1.7 10.4 0.00 0.00 0.00 59 1010.1
20260509183543 71 317 4.3 8.7 0.00 0.00 0.00 58 1010.0
20260509183058 71 195 2.6 7.8 0.00 0.00 0.00 59 1010.1
20260509182541 70 198 3.5 10.4 0.00 0.00 0.00 59 1010.3
20260509182040 70 250 4.3 10.4 0.00 0.00 0.00 58 1010.3
20260509181540 71 231 4.3 12.2 0.00 0.00 0.00 58 1010.3
20260509181039 69 248 3.5 13.0 0.00 0.00 0.00 61 1010.4
20260509180541 68 259 3.5 13.0 0.00 0.00 0.00 60 1010.4
20260509180038 68 198 5.2 13.9 0.00 0.00 0.00 60 1010.4
20260509175538 69 198 7.8 13.9 0.00 0.00 0.00 60 1010.5
20260509175038 69 216 4.3 12.2 0.00 0.00 0.00 61 1010.5
20260509174547 69 219 6.1 16.5 0.00 0.00 0.00 60 1010.5
20260509174038 69 224 6.1 18.2 0.00 0.00 0.00 60 1010.5
20260509173537 69 210 7.8 18.2 0.00 0.00 0.00 60 1010.5
20260509173042 70 207 13.0 17.4 0.00 0.00 0.00 59 1010.5
20260509172535 70 211 7.0 13.9 0.00 0.00 0.00 61 1010.6
20260509172036 68 217 7.8 21.7 0.00 0.00 0.00 63 1010.8
20260509171542 68 184 7.0 21.7 0.00 0.00 0.00 63 1010.9
20260509171034 69 196 9.6 18.2 0.00 0.00 0.00 62 1010.7
20260509170534 69 200 6.1 13.0 0.00 0.00 0.00 64 1010.6
20260509170034 68 237 6.1 13.0 0.00 0.00 0.00 65 1010.8
20260509165632 67 187 9.6 16.5 0.00 0.00 0.00 66 1010.8
20260509165031 67 190 8.7 20.9 0.00 0.00 0.00 65 1011.0
20260509164534 68 194 7.8 19.1 0.00 0.00 0.00 65 1010.9
20260509164030 68 177 10.4 19.1 0.00 0.00 0.00 63 1011.0
20260509163533 67 188 7.8 18.2 0.00 0.00 0.00 68 1011.0
20260509163042 66 180 10.4 18.2 0.00 0.00 0.00 67 1011.1
20260509162531 66 184 9.6 17.4 0.00 0.00 0.00 66 1011.2
20260509162028 68 188 7.8 13.0 0.00 0.00 0.00 65 1011.3
20260509161537 66 184 7.0 16.5 0.00 0.00 0.00 66 1011.2
20260509161026 66 240 5.2 16.5 0.00 0.00 0.00 66 1011.2
20260509160525 66 201 8.7 13.0 0.00 0.00 0.00 66 1011.2
20260509160026 65 242 4.3 9.6 0.00 0.00 0.00 68 1011.2
20260509155522 65 203 5.2 12.2 0.00 0.00 0.00 68 1011.4
20260509155022 65 180 6.1 13.9 0.00 0.00 0.00 68 1011.5
20260509154521 64 215 8.7 17.4 0.00 0.00 0.00 68 1011.6
20260509154020 64 175 4.3 20.9 0.00 0.00 0.00 69 1011.6
20260509153520 64 184 12.2 20.9 0.00 0.00 0.00 68 1011.7
20260509153033 64 186 9.6 17.4 0.00 0.00 0.00 68 1011.7
20260509152519 64 200 10.4 17.4 0.00 0.00 0.00 68 1011.7
20260509152019 64 183 10.4 13.9 0.00 0.00 0.00 68 1011.8
20260509151519 64 174 7.0 13.0 0.00 0.00 0.00 69 1011.9
20260509151021 64 223 8.7 13.0 0.00 0.00 0.00 69 1012.0
20260509150521 64 190 8.7 15.6 0.00 0.00 0.00 68 1012.0
20260509150027 64 219 7.8 20.9 0.00 0.00 0.00 68 1012.1
20260509145520 64 210 10.4 20.9 0.00 0.00 0.00 69 1011.9
20260509145016 63 173 11.3 19.1 0.00 0.00 0.00 69 1012.0
20260509144514 63 211 9.6 15.6 0.00 0.00 0.00 69 1012.1
20260509144014 63 182 7.0 13.0 0.00 0.00 0.00 71 1012.1
20260509143512 61 197 7.8 13.0 0.00 0.00 0.00 71 1012.2
20260509143010 61 188 7.0 13.9 0.00 0.00 0.00 72 1012.4
20260509142510 60 171 5.2 13.9 0.00 0.00 0.00 71 1012.4
20260509142008 60 158 7.8 10.4 0.00 0.00 0.00 72 1012.5
20260509141507 59 197 6.1 12.2 0.00 0.00 0.00 73 1012.7
20260509141007 59 167 7.0 12.2 0.00 0.00 0.00 73 1012.8
20260509140507 59 181 7.8 11.3 0.00 0.00 0.00 73 1012.7
20260509140005 59 194 7.0 11.3 0.00 0.00 0.00 73 1012.8
20260509135503 58 198 6.1 12.2 0.00 0.00 0.00 74 1012.8
20260509135004 58 201 7.0 12.2 0.00 0.00 0.00 74 1012.9
20260509134501 58 173 5.2 13.0 0.00 0.00 0.00 75 1012.9
20260509134002 58 194 6.1 13.0 0.00 0.00 0.00 75 1012.8
20260509133600 58 178 4.3 11.3 0.00 0.00 0.00 75 1012.8
20260509133059 57 209 7.0 11.3 0.00 0.00 0.00 75 1012.9
20260509132557 57 191 6.1 11.3 0.00 0.00 0.00 75 1012.9
20260509132058 57 211 7.0 10.4 0.00 0.00 0.00 75 1013.0
20260509131559 57 208 7.0 10.4 0.00 0.00 0.00 75 1013.0
20260509131055 57 213 5.2 10.4 0.00 0.00 0.00 75 1013.0
20260509130554 56 192 7.8 10.4 0.00 0.00 0.00 75 1013.1
20260509130055 56 221 6.1 8.7 0.00 0.00 0.00 77 1013.1
20260509125552 56 224 5.2 8.7 0.00 0.00 0.00 77 1013.0
20260509125050 55 205 5.2 8.7 0.00 0.00 0.00 77 1012.9
20260509124552 55 200 5.2 8.7 0.00 0.00 0.00 78 1013.0
20260509124048 54 196 5.2 10.4 0.00 0.00 0.00 78 1013.0
20260509123548 54 197 7.0 11.3 0.00 0.00 0.00 79 1013.0
20260509123104 54 188 6.1 13.0 0.00 0.00 0.00 79 1013.0
20260509122546 53 202 7.8 12.2 0.00 0.00 0.00 79 1012.9
20260509122045 53 209 7.0 13.9 0.00 0.00 0.00 79 1013.0
20260509121544 53 180 7.0 13.9 0.00 0.00 0.00 80 1013.1
20260509121048 52 186 7.0 13.0 0.00 0.00 0.00 81 1013.0
20260509120543 52 182 7.8 13.0 0.00 0.00 0.00 81 1013.1
20260509120041 51 188 7.0 10.4 0.00 0.00 0.00 81 1013.0
20260509115540 51 187 7.0 12.2 0.00 0.00 0.00 81 1013.1
20260509115040 51 203 9.6 12.2 0.00 0.00 0.00 82 1013.1
20260509114540 51 196 7.8 13.0 0.00 0.00 0.00 82 1012.9
20260509114039 51 197 7.0 13.0 0.00 0.00 0.00 82 1012.9
20260509113542 50 166 7.8 13.0 0.00 0.00 0.00 82 1013.0
20260509113038 50 194 7.8 12.2 0.00 0.00 0.00 82 1013.1
20260509112536 50 192 7.0 11.3 0.00 0.00 0.00 82 1013.0
20260509112036 49 194 6.1 12.2 0.00 0.00 0.00 82 1013.0
20260509111536 49 182 7.8 12.2 0.00 0.00 0.00 82 1012.9
20260509111035 49 186 6.1 13.0 0.00 0.00 0.00 81 1012.9
20260509110532 49 186 7.0 10.4 0.00 0.00 0.00 81 1012.9
20260509110032 49 177 6.1 11.3 0.00 0.00 0.00 81 1012.9
20260509105531 48 189 7.0 11.3 0.00 0.00 0.00 81 1012.9
20260509105029 48 190 7.0 9.6 0.00 0.00 0.00 81 1012.8